Location: Tamazert
(32.6352°N, 5.2072°W)
Time: 22:04:47
(UTC+00:00)

Meteor 1-28 Rocket - Pass Details

Date: 22 May 2022
Orbit: 499 x 518 km, 97.4° (Epoch: 24 June)

Event Time Altitude Azimuth Distance (km) Brightness Sun altitude
Exits shadow 03:12:00 30° 317° (NW) 943 4.5 -22.6°
Drops below altitude 10° 03:14:09 10° 336° (NNW) 1,740 6.1 -22.2°
Sets 03:16:18 0° 342° (NNW) 2,627 7.1 -21.9°
